Location: City of Moscow
(46.7306°N, 116.9989°W)
Time: 04:09:01
(UTC+00:00)

Cosmos 1626 Rocket - Pass Details

Date: 14 March 2026
Orbit: 596 x 624 km, 82.5° (Epoch: 13 April)

Event Time Altitude Azimuth Distance (km) Brightness Sun altitude
Rises 02:31:43 0° 213° (SSW) 2,893 7.4 -7.8°
Reaches altitude 10° 02:34:08 10° 224° (SW) 1,993 6.8 -8.2°
Maximum altitude 02:38:05 31° 287° (WNW) 1,097 5.7 -8.8°
Drops below altitude 10° 02:42:04 10° 350° (N) 2,007 6.4 -9.5°
Sets 02:44:31 0° 1° (N) 2,917 7.1 -9.9°
